Time,TemperatureF,DewpointF,PressureIn,WindDirection,WindDirectionDegrees,WindSpeedMPH,WindSpeedGustMPH,Humidity,HourlyPrecipIn,Conditions,Clouds,dailyrainin,SolarRadiationWatts/m^2,SoftwareType,DateUTC
2013-03-04 00:01:00,32.0,32.0,-100.00,ENE,66,0.0,0.0,100,0.00,,,0.47,0.000000,,2013-03-04 08:01:00,
2013-03-04 00:32:00,31.0,31.0,-100.00,East,85,0.0,0.0,100,0.00,,,0.47,0.000000,,2013-03-04 08:32:00,
2013-03-04 00:42:00,31.0,31.0,-100.00,East,85,0.0,0.0,100,0.00,,,0.47,0.000000,,2013-03-04 08:42:00,
2013-03-04 00:52:00,31.0,31.0,-100.00,East,85,0.0,0.0,100,0.00,,,0.47,0.000000,,2013-03-04 08:52:00,
2013-03-04 01:01:00,31.0,31.0,-100.00,East,85,0.0,0.0,100,0.00,,,0.47,0.000000,,2013-03-04 09:01:00,
2013-03-04 01:22:00,31.0,31.0,-100.00,NNE,19,0.0,2.0,100,0.00,,,0.45,0.000000,,2013-03-04 09:22:00,
2013-03-04 01:32:00,31.0,31.0,-100.00,NNE,19,0.0,2.0,100,0.00,,,0.45,0.000000,,2013-03-04 09:32:00,
2013-03-04 01:42:00,31.0,31.0,-100.00,NNE,19,0.0,2.0,100,0.00,,,0.45,0.000000,,2013-03-04 09:42:00,
2013-03-04 01:52:00,31.0,31.0,-100.00,NNE,19,0.0,2.0,100,0.00,,,0.45,0.000000,,2013-03-04 09:52:00,
2013-03-04 02:01:00,31.0,31.0,-100.00,NNE,19,0.0,2.0,100,0.00,,,0.45,0.000000,,2013-03-04 10:01:00,
2013-03-04 02:32:00,31.0,31.0,-100.00,East,85,0.0,0.0,100,0.00,,,0.45,0.000000,,2013-03-04 10:32:00,
2013-03-04 02:42:00,31.0,31.0,-100.00,East,85,0.0,0.0,100,0.00,,,0.45,0.000000,,2013-03-04 10:42:00,
2013-03-04 02:52:00,31.0,31.0,-100.00,East,85,0.0,0.0,100,0.00,,,0.45,0.000000,,2013-03-04 10:52:00,
2013-03-04 03:01:00,31.0,31.0,-100.00,East,85,0.0,0.0,100,0.00,,,0.45,0.000000,,2013-03-04 11:01:00,
2013-03-04 03:22:00,31.0,31.0,-100.00,East,97,0.0,2.0,100,0.00,,,0.43,0.000000,,2013-03-04 11:22:00,
2013-03-04 03:32:00,31.0,31.0,-100.00,East,97,0.0,2.0,100,0.00,,,0.43,0.000000,,2013-03-04 11:32:00,
2013-03-04 03:42:00,31.0,31.0,-100.00,East,97,0.0,2.0,100,0.00,,,0.43,0.000000,,2013-03-04 11:42:00,
2013-03-04 03:52:00,31.0,31.0,-100.00,East,97,0.0,2.0,100,0.00,,,0.43,0.000000,,2013-03-04 11:52:00,
2013-03-04 04:01:00,31.0,31.0,-100.00,East,97,0.0,2.0,100,0.00,,,0.43,0.000000,,2013-03-04 12:01:00,
2013-03-04 04:02:00,31.0,31.0,-100.00,ESE,122,0.0,6.0,100,0.00,,,0.42,0.000000,,2013-03-04 12:02:00,
2013-03-04 04:22:00,31.0,31.0,-100.00,ESE,122,0.0,6.0,100,0.00,,,0.42,0.000000,,2013-03-04 12:22:00,
2013-03-04 04:32:00,31.0,31.0,-100.00,ESE,122,0.0,6.0,100,0.00,,,0.42,0.000000,,2013-03-04 12:32:00,
2013-03-04 04:42:00,31.0,31.0,-100.00,ESE,122,0.0,6.0,100,0.00,,,0.42,0.000000,,2013-03-04 12:42:00,
2013-03-04 04:52:00,31.0,31.0,-100.00,ESE,122,0.0,6.0,100,0.00,,,0.42,0.000000,,2013-03-04 12:52:00,
2013-03-04 05:22:00,30.0,30.0,-100.00,SE,124,0.0,6.0,100,0.00,,,0.40,0.000000,,2013-03-04 13:22:00,
2013-03-04 05:32:00,30.0,30.0,-100.00,SE,124,0.0,6.0,100,0.00,,,0.40,0.000000,,2013-03-04 13:32:00,
2013-03-04 05:42:00,30.0,30.0,-100.00,SE,124,0.0,6.0,100,0.00,,,0.40,0.000000,,2013-03-04 13:42:00,
2013-03-04 05:52:00,30.0,30.0,-100.00,SE,124,0.0,6.0,100,0.00,,,0.40,0.000000,,2013-03-04 13:52:00,
2013-03-04 06:01:00,30.0,30.0,-100.00,SE,124,0.0,6.0,100,0.00,,,0.40,0.000000,,2013-03-04 14:01:00,
2013-03-04 06:32:00,30.0,30.0,-100.00,East,84,0.0,6.0,100,0.00,,,0.38,0.000000,,2013-03-04 14:32:00,
2013-03-04 06:42:00,30.0,30.0,-100.00,East,84,0.0,6.0,100,0.00,,,0.38,0.000000,,2013-03-04 14:42:00,
2013-03-04 06:52:00,30.0,30.0,-100.00,East,84,0.0,6.0,100,0.00,,,0.38,0.000000,,2013-03-04 14:52:00,
2013-03-04 07:01:00,30.0,30.0,-100.00,East,84,0.0,6.0,100,0.00,,,0.38,0.000000,,2013-03-04 15:01:00,
2013-03-04 07:02:00,30.0,30.0,-100.00,East,95,1.0,5.0,100,0.00,,,0.37,6.000000,,2013-03-04 15:02:00,
2013-03-04 07:32:00,30.0,30.0,-100.00,East,95,1.0,5.0,100,0.00,,,0.37,6.000000,,2013-03-04 15:32:00,
2013-03-04 07:42:00,30.0,30.0,-100.00,East,95,1.0,5.0,100,0.00,,,0.37,6.000000,,2013-03-04 15:42:00,
2013-03-04 07:52:00,30.0,30.0,-100.00,East,95,1.0,5.0,100,0.00,,,0.37,6.000000,,2013-03-04 15:52:00,
2013-03-04 08:32:00,33.0,32.0,-100.00,ESE,102,2.0,7.0,95,0.00,,,0.35,94.000000,,2013-03-04 16:32:00,
2013-03-04 08:42:00,33.0,32.0,-100.00,ESE,102,2.0,7.0,95,0.00,,,0.35,94.000000,,2013-03-04 16:42:00,
2013-03-04 08:52:00,33.0,32.0,-100.00,ESE,102,2.0,7.0,95,0.00,,,0.35,94.000000,,2013-03-04 16:52:00,
2013-03-04 09:01:00,33.0,32.0,-100.00,ESE,102,2.0,7.0,95,0.00,,,0.35,94.000000,,2013-03-04 17:01:00,
2013-03-04 09:22:00,35.0,32.0,-100.00,ESE,107,0.0,5.0,88,0.00,,,0.34,71.000000,,2013-03-04 17:22:00,
2013-03-04 09:32:00,35.0,32.0,-100.00,ESE,107,0.0,5.0,88,0.00,,,0.34,71.000000,,2013-03-04 17:32:00,
2013-03-04 09:42:00,35.0,32.0,-100.00,ESE,107,0.0,5.0,88,0.00,,,0.34,71.000000,,2013-03-04 17:42:00,
2013-03-04 09:52:00,35.0,32.0,-100.00,ESE,107,0.0,5.0,88,0.00,,,0.34,71.000000,,2013-03-04 17:52:00,
2013-03-04 10:32:00,43.0,33.0,-100.00,West,261,0.0,5.0,67,-99.99,,,0.31,98.000000,,2013-03-04 18:32:00,
2013-03-04 10:42:00,43.0,33.0,-100.00,West,261,0.0,5.0,67,-99.99,,,0.31,98.000000,,2013-03-04 18:42:00,
2013-03-04 10:52:00,43.0,33.0,-100.00,West,261,0.0,5.0,67,-99.99,,,0.31,98.000000,,2013-03-04 18:52:00,
2013-03-04 11:01:00,43.0,33.0,-100.00,West,261,0.0,5.0,67,-99.99,,,0.31,98.000000,,2013-03-04 19:01:00,
2013-03-04 11:32:00,53.0,31.0,-100.00,SW,224,1.0,3.0,43,0.00,,,0.21,695.000000,,2013-03-04 19:32:00,
2013-03-04 11:42:00,53.0,31.0,-100.00,SW,224,1.0,3.0,43,0.00,,,0.21,695.000000,,2013-03-04 19:42:00,
2013-03-04 11:52:00,53.0,31.0,-100.00,SW,224,1.0,3.0,43,0.00,,,0.21,695.000000,,2013-03-04 19:52:00,
2013-03-04 12:01:00,53.0,31.0,-100.00,SW,224,1.0,3.0,43,0.00,,,0.21,695.000000,,2013-03-04 20:01:00,
2013-03-04 12:32:00,56.0,31.0,-100.00,SE,145,2.0,6.0,38,0.00,,,0.10,880.000000,,2013-03-04 20:32:00,
2013-03-04 12:42:00,56.0,31.0,-100.00,SE,145,2.0,6.0,38,0.00,,,0.10,880.000000,,2013-03-04 20:42:00,
2013-03-04 12:52:00,56.0,31.0,-100.00,SE,145,2.0,6.0,38,0.00,,,0.10,880.000000,,2013-03-04 20:52:00,
2013-03-04 13:01:00,56.0,31.0,-100.00,SE,145,2.0,6.0,38,0.00,,,0.10,880.000000,,2013-03-04 21:01:00,
2013-03-04 13:32:00,59.0,37.0,-100.00,NW,325,1.0,7.0,43,0.00,,,0.07,890.000000,,2013-03-04 21:32:00,
2013-03-04 13:43:00,59.0,37.0,-100.00,NW,325,1.0,7.0,43,0.00,,,0.07,890.000000,,2013-03-04 21:43:00,
2013-03-04 13:52:00,59.0,37.0,-100.00,NW,325,1.0,7.0,43,0.00,,,0.07,890.000000,,2013-03-04 21:52:00,
2013-03-04 14:01:00,59.0,37.0,-100.00,NW,325,1.0,7.0,43,0.00,,,0.07,890.000000,,2013-03-04 22:01:00,
2013-03-04 14:22:00,53.0,32.0,-100.00,NNW,331,2.0,8.0,45,0.00,,,0.02,702.000000,,2013-03-04 22:22:00,
2013-03-04 14:32:00,53.0,32.0,-100.00,NNW,331,2.0,8.0,45,0.00,,,0.02,702.000000,,2013-03-04 22:32:00,
2013-03-04 14:42:00,53.0,32.0,-100.00,NNW,331,2.0,8.0,45,0.00,,,0.02,702.000000,,2013-03-04 22:42:00,
2013-03-04 14:52:00,53.0,32.0,-100.00,NNW,331,2.0,8.0,45,0.00,,,0.02,702.000000,,2013-03-04 22:52:00,
2013-03-04 15:01:00,53.0,32.0,-100.00,NNW,331,2.0,8.0,45,0.00,,,0.02,702.000000,,2013-03-04 23:01:00,
2013-03-04 15:32:00,56.0,34.0,-100.00,NW,315,1.0,9.0,44,0.00,,,0.01,620.000000,,2013-03-04 23:32:00,
2013-03-04 15:42:00,56.0,34.0,-100.00,NW,315,1.0,9.0,44,0.00,,,0.01,620.000000,,2013-03-04 23:42:00,
2013-03-04 15:52:00,56.0,34.0,-100.00,NW,315,1.0,9.0,44,0.00,,,0.01,620.000000,,2013-03-04 23:52:00,
2013-03-04 16:01:00,56.0,34.0,-100.00,NW,315,1.0,9.0,44,0.00,,,0.01,620.000000,,2013-03-05 00:01:00,
2013-03-04 16:32:00,55.0,34.0,-100.00,WSW,254,1.0,7.0,45,0.00,,,0.00,442.000000,,2013-03-05 00:32:00,
2013-03-04 16:42:00,55.0,34.0,-100.00,WSW,254,1.0,7.0,45,0.00,,,0.00,442.000000,,2013-03-05 00:42:00,
2013-03-04 16:52:00,55.0,34.0,-100.00,WSW,254,1.0,7.0,45,0.00,,,0.00,442.000000,,2013-03-05 00:52:00,
2013-03-04 17:01:00,55.0,34.0,-100.00,WSW,254,1.0,7.0,45,0.00,,,0.00,442.000000,,2013-03-05 01:01:00,
2013-03-04 17:33:00,54.0,38.0,-100.00,NW,324,2.0,6.0,54,0.00,,,0.00,282.000000,,2013-03-05 01:33:00,
2013-03-04 17:42:00,54.0,38.0,-100.00,NW,324,2.0,6.0,54,0.00,,,0.00,282.000000,,2013-03-05 01:42:00,
2013-03-04 17:52:00,54.0,38.0,-100.00,NW,324,2.0,6.0,54,0.00,,,0.00,282.000000,,2013-03-05 01:52:00,
2013-03-04 18:01:00,54.0,38.0,-100.00,NW,324,2.0,6.0,54,0.00,,,0.00,282.000000,,2013-03-05 02:01:00,
2013-03-04 18:32:00,45.0,34.0,-100.00,NNE,20,0.0,7.0,66,0.00,,,0.00,32.000000,,2013-03-05 02:32:00,
2013-03-04 18:42:00,45.0,34.0,-100.00,NNE,20,0.0,7.0,66,0.00,,,0.00,32.000000,,2013-03-05 02:42:00,
2013-03-04 18:52:00,45.0,34.0,-100.00,NNE,20,0.0,7.0,66,0.00,,,0.00,32.000000,,2013-03-05 02:52:00,
2013-03-04 19:01:00,45.0,34.0,-100.00,NNE,20,0.0,7.0,66,0.00,,,0.00,32.000000,,2013-03-05 03:01:00,
2013-03-04 19:22:00,43.0,42.0,-100.00,NNW,346,0.0,5.0,95,0.00,,,0.00,0.000000,,2013-03-05 03:22:00,
2013-03-04 19:32:00,43.0,42.0,-100.00,NNW,346,0.0,5.0,95,0.00,,,0.00,0.000000,,2013-03-05 03:32:00,
2013-03-04 19:42:00,43.0,42.0,-100.00,NNW,346,0.0,5.0,95,0.00,,,0.00,0.000000,,2013-03-05 03:42:00,
2013-03-04 19:52:00,43.0,42.0,-100.00,NNW,346,0.0,5.0,95,0.00,,,0.00,0.000000,,2013-03-05 03:52:00,
2013-03-04 20:01:00,43.0,42.0,-100.00,NNW,346,0.0,5.0,95,0.00,,,0.00,0.000000,,2013-03-05 04:01:00,
2013-03-04 20:32:00,41.0,40.0,-100.00,SE,143,0.0,5.0,98,0.00,,,0.00,0.000000,,2013-03-05 04:32:00,
2013-03-04 20:42:00,41.0,40.0,-100.00,SE,143,0.0,5.0,98,0.00,,,0.00,0.000000,,2013-03-05 04:42:00,
2013-03-04 20:52:00,41.0,40.0,-100.00,SE,143,0.0,5.0,98,0.00,,,0.00,0.000000,,2013-03-05 04:52:00,
2013-03-04 21:01:00,41.0,40.0,-100.00,SE,143,0.0,5.0,98,0.00,,,0.00,0.000000,,2013-03-05 05:01:00,
2013-03-04 21:22:00,38.0,38.0,-100.00,NE,39,0.0,3.0,100,0.00,,,0.00,0.000000,,2013-03-05 05:22:00,
2013-03-04 21:32:00,38.0,38.0,-100.00,NE,39,0.0,3.0,100,0.00,,,0.00,0.000000,,2013-03-05 05:32:00,
2013-03-04 21:42:00,38.0,38.0,-100.00,NE,39,0.0,3.0,100,0.00,,,0.00,0.000000,,2013-03-05 05:42:00,
2013-03-04 21:52:00,38.0,38.0,-100.00,NE,39,0.0,3.0,100,0.00,,,0.00,0.000000,,2013-03-05 05:52:00,
2013-03-04 22:01:00,38.0,38.0,-100.00,NE,39,0.0,3.0,100,0.00,,,0.00,0.000000,,2013-03-05 06:01:00,
2013-03-04 22:22:00,37.0,37.0,-100.00,SE,143,0.0,0.0,100,0.00,,,0.00,0.000000,,2013-03-05 06:22:00,
2013-03-04 22:32:00,37.0,37.0,-100.00,SE,143,0.0,0.0,100,0.00,,,0.00,0.000000,,2013-03-05 06:32:00,
2013-03-04 22:42:00,37.0,37.0,-100.00,SE,143,0.0,0.0,100,0.00,,,0.00,0.000000,,2013-03-05 06:42:00,
2013-03-04 22:52:00,37.0,37.0,-100.00,SE,143,0.0,0.0,100,0.00,,,0.00,0.000000,,2013-03-05 06:52:00,
2013-03-04 23:01:00,37.0,37.0,-100.00,SE,143,0.0,0.0,100,0.00,,,0.00,0.000000,,2013-03-05 07:01:00,
2013-03-04 23:22:00,37.0,37.0,-100.00,ESE,108,0.0,0.0,100,0.00,,,0.00,0.000000,,2013-03-05 07:22:00,
2013-03-04 23:32:00,37.0,37.0,-100.00,ESE,108,0.0,0.0,100,0.00,,,0.00,0.000000,,2013-03-05 07:32:00,
2013-03-04 23:42:00,37.0,37.0,-100.00,ESE,108,0.0,0.0,100,0.00,,,0.00,0.000000,,2013-03-05 07:42:00,
2013-03-04 23:52:00,37.0,37.0,-100.00,ESE,108,0.0,0.0,100,0.00,,,0.00,0.000000,,2013-03-05 07:52:00,